Location: Gro�sch�nbrunn
(49.5760°N, 11.8868°E)
Time: 08:51:12
(UTC+00:00)

N. Korean satellite - Pass Details

Date: 28 November 2020
Orbit: 453 x 502 km, 97.2° (Epoch: 16 January)

Event Time Altitude Azimuth Distance (km) Brightness Sun altitude
Rises 16:05:45 0° 179° (S) 2,455 10.5 -7.8°
Reaches altitude 10° 16:07:49 10° 185° (S) 1,590 9.6 -8.1°
Maximum altitude 16:11:07 47° 261° (W) 617 7.6 -8.6°
Drops below altitude 10° 16:14:29 10° 336° (NNW) 1,620 9.2 -9.1°
Sets 16:16:37 0° 343° (NNW) 2,507 10.1 -9.4°
